Terminal Aerodrome Forecast
Issued by NWS

Current Version | Previous Version | Text Only | Print | Product List | Glossary Off
Versions: 1 2 3 4 5 6 7 8 9 10 11 12 13 14 15 16 17 18 19 20 21 22 23 24 25 26 27 28 29 30 31 32 33 34 35 36 37 38 39

000
FTUS41 KRNK 201509 AAA
TAFLWB
TAF AMD
KLWB 201509Z 2015/2112 04004KT P6SM SCT020 OVC050
     FM201800 00000KT P6SM -RASN OVC025
     FM210000 00000KT P6SM OVC015
     FM210800 00000KT 5SM BR BKN020=

USA.gov is the U.S. government's official web portal to all federal, state and local government web resources and services.